Sion Airport LSGS

Flugplatz Daten

Name: Sion Airport

Ident: LSGS

Lat: 46,21960068

Long: 7,326759815

Platzhöhe: 1585 ft

IataCode: SIR

City: Sion

Homepage: http://www.sionairport.ch

Metar

2022/08/10 19:50
LSGS 101950Z AUTO 25004KT 200V270 CAVOK 26/10 Q1018

Taf

Gewünschte Webcam nicht vorhanden? Dann fügen Sie eine hinzu. Sie wird dann so schnell wie möglich freigeschaltet
Url: Title: